Weather History for TTCP - October, 2014

Change the Weather History Date:

Friday, October 31, 2014

  Actual Average Record
Temperature  
Mean Temperature 84 °F -  
Max Temperature 89 °F 85 °F 89 °F (1998)
Min Temperature 80 °F 76 °F 75 °F (2004)
Cooling Degree Days 20    
Growing Degree Days 34 (Base 50)    
Moisture  
Dew Point 76 °F    
Average Humidity 74    
Maximum Humidity 84    
Minimum Humidity 66    
Precipitation  
Precipitation 0.00 in - - ()
Sea Level Pressure  
Sea Level Pressure 29.87 in    
Wind  
Wind Speed 11 mph ()    
Max Wind Speed 18 mph    
Max Gust Speed -    
Visibility 6.1 miles    
Events Rain    
Averages and records for this station are not official NWS values.
T = Trace of Precipitation, MM = Missing Value Source: Averaged Metar Reports

Daily Weather History Graph

Daily Weather History Graph

Search for Another Location

Airport or City:

Trip Planner

Search our weather history database for the weather conditions in past years. The results will help you decide how hot, cold, wet, or windy it might be!

Date:

Astronomy

Oct. 31, 2014 Rise Set
Actual Time 5:54 AM AST 5:38 PM AST
Civil Twilight 5:33 AM AST 6:00 PM AST
Nautical Twilight 5:08 AM AST 6:25 PM AST
Astronomical Twilight 4:43 AM AST 6:50 PM AST
Moon 12:41 PM AST (10/31) No Moon Set
Length of Visible Light 12h 27m
Length of Day
11h 44m
First Quarter, 56% of the Moon is Illuminated
Oct 31
First Quarter
Nov 6
Full
Nov 14
Last Quarter
Nov 22
New
Nov 29
First Quarter

Hourly Weather History & Observations

Time (AST) Temp. Heat Index Dew Point Humidity Pressure Visibility Wind Dir Wind Speed Gust Speed Precip Events Conditions
12:00 AM 82.4 °F 88.2 °F 73.4 °F 74% 29.86 in 6.2 mi East 9.2 mph - N/A   Scattered Clouds
1:00 AM 82.4 °F 88.2 °F 73.4 °F 74% 29.83 in 6.2 mi East 11.5 mph - N/A   Scattered Clouds
2:00 AM 82.4 °F 88.2 °F 73.4 °F 74% 29.80 in 6.2 mi East 11.5 mph - N/A   Partly Cloudy
4:00 AM 80.6 °F 85.4 °F 73.4 °F 79% 29.80 in 6.2 mi East 6.9 mph - N/A   Partly Cloudy
5:00 AM 82.4 °F 88.2 °F 73.4 °F 74% 29.80 in 6.2 mi East 9.2 mph - N/A   Partly Cloudy
6:00 AM 80.6 °F 86.2 °F 75.2 °F 84% 29.83 in 6.2 mi East 6.9 mph - N/A   Scattered Clouds
7:00 AM 82.4 °F 89.5 °F 75.2 °F 79% 29.86 in 6.2 mi East 9.2 mph - N/A   Scattered Clouds
8:00 AM 86.0 °F 99.3 °F 78.8 °F 79% 29.89 in 6.2 mi East 11.5 mph - N/A   Scattered Clouds
9:00 AM 87.8 °F 99.7 °F 77.0 °F 70% 29.92 in 6.2 mi East 11.5 mph - N/A   Scattered Clouds
10:00 AM 87.8 °F 99.7 °F 77.0 °F 70% 29.92 in 6.2 mi East 16.1 mph - N/A   Scattered Clouds
11:00 AM 89.6 °F 102.2 °F 77.0 °F 66% 29.92 in 6.2 mi East 17.3 mph - N/A   Scattered Clouds
12:00 PM 87.8 °F 97.6 °F 75.2 °F 66% 29.89 in 6.2 mi ESE 16.1 mph - N/A   Scattered Clouds
1:00 PM 87.8 °F 99.7 °F 77.0 °F 70% 29.86 in 6.2 mi ESE 18.4 mph - N/A   Scattered Clouds
2:00 PM 87.8 °F 99.7 °F 77.0 °F 70% 29.83 in 6.2 mi East 18.4 mph - N/A   Scattered Clouds
3:00 PM 87.8 °F 99.7 °F 77.0 °F 70% 29.83 in 6.2 mi East 16.1 mph - N/A   Scattered Clouds
4:00 PM 86.0 °F 96.9 °F 77.0 °F 74% 29.83 in 6.2 mi ESE 13.8 mph - N/A   Scattered Clouds
5:00 PM 86.0 °F 96.9 °F 77.0 °F 74% 29.86 in 6.2 mi East 12.7 mph - N/A   Scattered Clouds
6:00 PM 84.2 °F 92.3 °F 75.2 °F 74% 29.86 in 6.2 mi ESE 17.3 mph - N/A   Scattered Clouds
7:00 PM 84.2 °F 92.3 °F 75.2 °F 74% 29.89 in 6.2 mi East 15.0 mph - N/A   Scattered Clouds
8:00 PM 82.4 °F 90.9 °F 77.0 °F 84% 29.89 in 6.2 mi East 11.5 mph - N/A   Partly Cloudy
9:00 PM 84.2 °F 92.3 °F 75.2 °F 74% 29.92 in 6.2 mi East 15.0 mph - N/A   Mostly Cloudy
10:00 PM 84.2 °F 92.3 °F 75.2 °F 74% 29.92 in 5.0 mi ESE 13.8 mph - N/A Rain Light Rain Showers
11:00 PM 82.4 °F 89.5 °F 75.2 °F 79% 29.92 in 6.2 mi ESE 12.7 mph - N/A   Partly Cloudy